Spartanburg, SC

12:09 PM EST on November 13, 2019 (GMT -0500)
Spartanburg Downtown Memorial

Weather History for KSPA - October, 2019

Change the Weather History Date:

Sunday, October 20, 2019

  Actual Average (KGSP) Record (KGSP)
Temperature  
Mean Temperature 64 °F -  
Max Temperature 77 °F 69 °F 87 °F (2016)
Min Temperature 51 °F 46 °F 29 °F (1972)
Degree Days  
Heating Degree Days 1    
Growing Degree Days 14 (Base 50)    
Moisture  
Dew Point 55 °F    
Average Humidity 80    
Maximum Humidity 100    
Minimum Humidity 47    
Precipitation  
Precipitation 0.13 in - - ()
Sea Level Pressure  
Sea Level Pressure 29.83 in    
Wind  
Wind Speed 8 mph ()    
Max Wind Speed 16 mph    
Max Gust Speed 21 mph    
Visibility 9.0 miles    
Events Rain    
Averages and records for this station are not official NWS values.
T = Trace of Precipitation, MM = Missing Value Source: Averaged Metar Reports

Daily Weather History Graph

Daily Weather History Graph

Search for Another Location

Airport or City:

Astronomy

Oct. 20, 2019 Rise Set
Actual Time 7:37 AM EDT 6:47 PM EDT
Civil Twilight 7:12 AM EDT 7:12 PM EDT
Nautical Twilight 6:42 AM EDT 7:42 PM EDT
Astronomical Twilight 6:13 AM EDT 8:11 PM EDT
Moon No Moon Rise 1:55 PM EDT (10/20)
Length of Visible Light 12h 00m
Length of Day
11h 09m
Waning Gibbous, 59% of the Moon is Illuminated
Oct 20
Waning Gibbous
Oct 21
Last Quarter
Oct 27
New
Nov 4
First Quarter
Nov 12
Full

Hourly Weather History & Observations

Time (EDT) Temp. Dew Point Humidity Pressure Visibility Wind Dir Wind Speed Gust Speed Precip Events Conditions
12:15 AM 51.8 °F 50.0 °F 94% 29.80 in 7.0 mi NNE 16.1 mph 20.7 mph 0.01 in   Drizzle
12:55 AM 51.8 °F 50.0 °F 94% 29.80 in 4.0 mi NNE 13.8 mph - 0.04 in   Drizzle
1:15 AM 51.8 °F 50.0 °F 94% 29.79 in 7.0 mi NNE 12.7 mph 19.6 mph 0.02 in   Drizzle
1:35 AM 51.8 °F 50.0 °F 94% 29.78 in 5.0 mi NNE 13.8 mph - 0.03 in   Drizzle
1:55 AM 51.8 °F 50.0 °F 94% 29.77 in 5.0 mi NNE 13.8 mph - 0.04 in   Light Drizzle
2:15 AM 51.8 °F 50.0 °F 94% 29.77 in 7.0 mi North 15.0 mph 18.4 mph 0.01 in Rain Light Rain
2:35 AM 51.8 °F 50.0 °F 94% 29.75 in 10.0 mi NNE 13.8 mph 18.4 mph 0.01 in   Overcast
2:55 AM 51.8 °F 50.0 °F 94% 29.74 in 10.0 mi NNE 12.7 mph - 0.01 in   Overcast
3:15 AM 51.8 °F 50.0 °F 94% 29.73 in 7.0 mi North 13.8 mph 20.7 mph N/A   Overcast
3:35 AM 51.8 °F 50.0 °F 94% 29.72 in 4.0 mi North 13.8 mph - N/A   Overcast
3:55 AM 51.8 °F 50.0 °F 94% 29.71 in 5.0 mi North 15.0 mph 19.6 mph 0.01 in   Heavy Drizzle
4:15 AM 51.8 °F 51.8 °F 100% 29.70 in 4.0 mi North 12.7 mph - 0.01 in   Overcast
4:35 AM 53.6 °F 51.8 °F 94% 29.70 in 5.0 mi North 15.0 mph 18.4 mph 0.01 in   Overcast
4:55 AM 53.6 °F 51.8 °F 94% 29.72 in 7.0 mi North 10.4 mph 16.1 mph 0.01 in   Overcast
5:15 AM 53.6 °F 51.8 °F 94% 29.72 in 10.0 mi North 11.5 mph 17.3 mph N/A   Overcast
5:35 AM 53.6 °F 51.8 °F 94% 29.73 in 4.0 mi NNE 11.5 mph - N/A   Overcast
5:55 AM 53.6 °F 51.8 °F 94% 29.73 in 4.0 mi North 13.8 mph - N/A Rain Rain
6:15 AM 53.6 °F 51.8 °F 94% 29.75 in 5.0 mi North 10.4 mph - N/A   Overcast
6:35 AM 53.6 °F 53.6 °F 100% 29.75 in 7.0 mi North 10.4 mph - 0.01 in   Drizzle
6:55 AM 53.6 °F 53.6 °F 100% 29.75 in 10.0 mi NNE 9.2 mph - 0.01 in   Overcast
7:15 AM 55.4 °F 53.6 °F 94% 29.76 in 10.0 mi North 6.9 mph - N/A   Overcast
7:35 AM 55.4 °F 53.6 °F 94% 29.76 in 10.0 mi Calm Calm - N/A   Mostly Cloudy
7:55 AM 53.6 °F 53.6 °F 100% 29.77 in 10.0 mi North 4.6 mph - N/A   Scattered Clouds
8:15 AM 53.6 °F 53.6 °F 100% 29.77 in 10.0 mi North 4.6 mph - N/A   Scattered Clouds
8:35 AM 55.4 °F 53.6 °F 94% 29.78 in 10.0 mi North 4.6 mph - N/A   Overcast
8:55 AM 57.2 °F 53.6 °F 88% 29.80 in 10.0 mi NNW 5.8 mph - N/A   Mostly Cloudy
9:15 AM 59.0 °F 53.6 °F 82% 29.81 in 10.0 mi Calm Calm - N/A   Scattered Clouds
9:35 AM 59.0 °F 53.6 °F 82% 29.82 in 10.0 mi NNW 3.5 mph - N/A   Scattered Clouds
9:55 AM 60.8 °F 55.4 °F 82% 29.83 in 10.0 mi NW 3.5 mph - N/A   Scattered Clouds
10:15 AM 60.8 °F 55.4 °F 82% 29.84 in 10.0 mi NW 4.6 mph - N/A   Scattered Clouds
10:35 AM 62.6 °F 55.4 °F 77% 29.84 in 10.0 mi Calm Calm - N/A   Scattered Clouds
10:55 AM 62.6 °F 55.4 °F 77% 29.85 in 10.0 mi WNW 3.5 mph - N/A   Mostly Cloudy
11:15 AM 64.4 °F 55.4 °F 73% 29.85 in 10.0 mi Calm Calm - N/A   Overcast
11:35 AM 64.4 °F 55.4 °F 73% 29.85 in 10.0 mi Calm Calm - N/A   Overcast
11:55 AM 66.2 °F 55.4 °F 68% 29.86 in 10.0 mi Calm Calm - N/A   Scattered Clouds
12:15 PM 68.0 °F 55.4 °F 64% 29.86 in 10.0 mi Calm Calm - N/A   Mostly Cloudy
12:35 PM 68.0 °F 55.4 °F 64% 29.86 in 10.0 mi NW 3.5 mph - N/A   Scattered Clouds
12:55 PM 69.8 °F 55.4 °F 60% 29.86 in 10.0 mi NW 3.5 mph - 0.01 in   Clear
1:15 PM 69.8 °F 55.4 °F 60% 29.85 in 10.0 mi NNW 3.5 mph - N/A   Clear
1:35 PM 71.6 °F 57.2 °F 60% 29.85 in 10.0 mi SSW 3.5 mph - N/A   Scattered Clouds
1:55 PM 71.6 °F 57.2 °F 60% 29.85 in 10.0 mi WNW 5.8 mph - N/A   Scattered Clouds
2:15 PM 71.6 °F 57.2 °F 60% 29.84 in 10.0 mi NNW 6.9 mph - N/A   Scattered Clouds
2:35 PM 73.4 °F 57.2 °F 57% 29.84 in 10.0 mi NNW 4.6 mph - N/A   Clear
2:55 PM 73.4 °F 55.4 °F 53% 29.84 in 10.0 mi Calm Calm - N/A   Clear
3:15 PM 75.2 °F 57.2 °F 53% 29.84 in 10.0 mi Calm Calm - N/A   Clear
3:35 PM 77.0 °F 57.2 °F 50% 29.84 in 10.0 mi NNE 3.5 mph - N/A   Scattered Clouds
3:55 PM 77.0 °F 57.2 °F 50% 29.85 in 10.0 mi NNW 4.6 mph - N/A   Scattered Clouds
4:15 PM 77.0 °F 57.2 °F 50% 29.85 in 10.0 mi Calm Calm - N/A   Clear
4:35 PM 77.0 °F 57.2 °F 50% 29.85 in 10.0 mi NNW 5.8 mph - N/A   Clear
4:55 PM 77.0 °F 57.2 °F 50% 29.86 in 10.0 mi West 4.6 mph - N/A   Clear
5:15 PM 77.0 °F 55.4 °F 47% 29.87 in 10.0 mi WNW 5.8 mph - N/A   Clear
5:35 PM 77.0 °F 55.4 °F 47% 29.87 in 10.0 mi West 6.9 mph - N/A   Clear
5:55 PM 75.2 °F 57.2 °F 53% 29.87 in 10.0 mi NW 3.5 mph - N/A   Clear
6:35 PM 73.4 °F 57.2 °F 57% 29.89 in 10.0 mi NW 3.5 mph - N/A   Clear
6:55 PM 71.6 °F 57.2 °F 60% 29.89 in 10.0 mi Calm Calm - N/A   Clear
7:15 PM 66.2 °F 60.8 °F 83% 29.89 in 10.0 mi Calm Calm - N/A   Clear
7:35 PM 64.4 °F 60.8 °F 88% 29.90 in 10.0 mi Calm Calm - N/A   Clear
7:55 PM 64.4 °F 60.8 °F 88% 29.91 in 10.0 mi Calm Calm - N/A   Clear
8:15 PM 62.6 °F 59.0 °F 88% 29.92 in 10.0 mi Calm Calm - N/A   Clear
8:35 PM 62.6 °F 59.0 °F 88% 29.92 in 10.0 mi NW 3.5 mph - N/A   Clear
8:55 PM 62.6 °F 59.0 °F 88% 29.93 in 10.0 mi WSW 3.5 mph - N/A   Clear
9:15 PM 60.8 °F 59.0 °F 94% 29.94 in 10.0 mi Calm Calm - N/A   Clear
9:35 PM 62.6 °F 57.2 °F 82% 29.94 in 10.0 mi Calm Calm - N/A   Clear
9:55 PM 60.8 °F 57.2 °F 88% 29.94 in 10.0 mi Calm Calm - N/A   Clear
10:15 PM 60.8 °F 57.2 °F 88% 29.95 in 10.0 mi Calm Calm - N/A   Scattered Clouds
10:35 PM 59.0 °F 57.2 °F 94% 29.97 in 10.0 mi Calm Calm - N/A   Scattered Clouds
10:55 PM 60.8 °F 59.0 °F 94% 29.97 in 10.0 mi Calm Calm - N/A   Mostly Cloudy
11:15 PM 60.8 °F 57.2 °F 88% 29.97 in 10.0 mi Calm Calm - N/A   Mostly Cloudy
11:35 PM 60.8 °F 59.0 °F 94% 29.97 in 10.0 mi Calm Calm - N/A   Overcast
11:55 PM 60.8 °F 57.2 °F 88% 29.98 in 10.0 mi Calm Calm - N/A   Mostly Cloudy